TimeMST,TemperatureF,Dew PointF,Humidity,Sea Level PressureIn,VisibilityMPH,Wind Direction,Wind SpeedMPH,Gust SpeedMPH,PrecipitationIn,Events,Conditions,WindDirDegrees,DateUTC
12:15 AM,28.4,15.8,59,30.23,10.0,Calm,Calm,-,N/A,,Mostly Cloudy,0,2014-01-17 07:15:00
12:35 AM,26.6,14.0,59,30.23,10.0,South,4.6,-,N/A,,Mostly Cloudy,190,2014-01-17 07:35:00
1:15 AM,26.6,15.8,64,30.22,10.0,SSW,3.5,-,N/A,,Clear,200,2014-01-17 08:15:00
1:35 AM,26.6,15.8,64,30.21,10.0,SSW,5.8,-,N/A,,Clear,200,2014-01-17 08:35:00
1:55 AM,21.2,12.2,68,30.20,10.0,Calm,Calm,-,N/A,,Clear,0,2014-01-17 08:55:00
2:15 AM,21.2,14.0,74,30.20,10.0,Calm,Calm,-,N/A,,Clear,0,2014-01-17 09:15:00
2:35 AM,21.2,14.0,74,30.20,10.0,WSW,4.6,-,N/A,,Clear,250,2014-01-17 09:35:00
2:55 AM,19.4,12.2,74,30.19,10.0,WNW,4.6,-,N/A,,Clear,300,2014-01-17 09:55:00
3:15 AM,19.4,10.4,68,30.19,10.0,NW,5.8,-,N/A,,Clear,320,2014-01-17 10:15:00
3:35 AM,17.6,10.4,73,30.19,10.0,NNW,5.8,-,N/A,,Clear,340,2014-01-17 10:35:00
3:55 AM,17.6,10.4,73,30.19,10.0,North,5.8,-,N/A,,Clear,10,2014-01-17 10:55:00
4:15 AM,17.6,10.4,73,30.19,10.0,North,6.9,-,N/A,,Clear,360,2014-01-17 11:15:00
4:35 AM,17.6,10.4,73,30.18,10.0,NE,5.8,-,N/A,,Clear,50,2014-01-17 11:35:00
4:55 AM,17.6,10.4,73,30.19,10.0,NNE,5.8,-,N/A,,Clear,20,2014-01-17 11:55:00
5:15 AM,17.6,10.4,73,30.18,10.0,Calm,Calm,-,N/A,,Clear,0,2014-01-17 12:15:00
5:35 AM,17.6,10.4,73,30.18,10.0,West,3.5,-,N/A,,Clear,280,2014-01-17 12:35:00
5:55 AM,15.8,8.6,73,30.18,10.0,NW,3.5,-,N/A,,Clear,320,2014-01-17 12:55:00
6:15 AM,15.8,8.6,73,30.17,10.0,NNW,3.5,-,N/A,,Clear,330,2014-01-17 13:15:00
6:35 AM,15.8,8.6,73,30.16,10.0,NW,5.8,-,N/A,,Clear,310,2014-01-17 13:35:00
6:55 AM,15.8,8.6,73,30.16,10.0,WNW,3.5,-,N/A,,Clear,300,2014-01-17 13:55:00
7:15 AM,15.8,8.6,73,30.16,10.0,Calm,Calm,-,N/A,,Clear,0,2014-01-17 14:15:00
7:55 AM,15.8,8.6,73,30.16,10.0,Calm,Calm,-,N/A,,Clear,0,2014-01-17 14:55:00
8:15 AM,19.4,12.2,74,30.16,10.0,Calm,Calm,-,N/A,,Clear,0,2014-01-17 15:15:00
8:35 AM,23.0,15.8,74,30.16,10.0,Calm,Calm,-,N/A,,Clear,0,2014-01-17 15:35:00
8:55 AM,26.6,17.6,69,30.16,10.0,SE,3.5,-,N/A,,Clear,140,2014-01-17 15:55:00
9:15 AM,26.6,17.6,69,30.17,10.0,SSW,5.8,-,N/A,,Mostly Cloudy,210,2014-01-17 16:15:00
9:55 AM,30.2,17.6,60,30.16,10.0,SSW,4.6,-,N/A,,Partly Cloudy,200,2014-01-17 16:55:00
10:15 AM,33.8,19.4,56,30.16,10.0,South,3.5,-,N/A,,Clear,170,2014-01-17 17:15:00
10:35 AM,35.6,19.4,52,30.15,10.0,SSW,4.6,-,N/A,,Clear,210,2014-01-17 17:35:00
10:55 AM,37.4,21.2,52,30.13,10.0,SSW,4.6,-,N/A,,Clear,200,2014-01-17 17:55:00
11:15 AM,39.2,21.2,49,30.12,10.0,SSE,6.9,-,N/A,,Clear,160,2014-01-17 18:15:00
11:35 AM,42.8,21.2,42,30.10,10.0,South,5.8,-,N/A,,Clear,170,2014-01-17 18:35:00
11:55 AM,44.6,23.0,43,30.09,10.0,SSE,6.9,-,N/A,,Clear,150,2014-01-17 18:55:00
12:15 PM,46.4,23.0,40,30.07,10.0,SE,8.1,-,N/A,,Clear,140,2014-01-17 19:15:00
12:35 PM,48.2,21.2,34,30.06,10.0,SSE,9.2,-,N/A,,Clear,160,2014-01-17 19:35:00
12:55 PM,48.2,19.4,32,30.04,10.0,SSE,6.9,-,N/A,,Clear,150,2014-01-17 19:55:00
1:15 PM,50.0,17.6,28,30.03,10.0,SE,5.8,-,N/A,,Clear,140,2014-01-17 20:15:00
1:35 PM,51.8,17.6,26,30.03,10.0,SE,6.9,-,N/A,,Clear,130,2014-01-17 20:35:00
1:55 PM,51.8,17.6,26,30.02,10.0,SSE,6.9,-,N/A,,Clear,160,2014-01-17 20:55:00
2:15 PM,51.8,17.6,26,30.02,10.0,SSE,8.1,-,N/A,,Clear,160,2014-01-17 21:15:00
2:35 PM,51.8,17.6,26,30.02,10.0,SSE,9.2,-,N/A,,Clear,150,2014-01-17 21:35:00
2:55 PM,51.8,17.6,26,30.02,10.0,South,8.1,-,N/A,,Clear,170,2014-01-17 21:55:00
3:15 PM,51.8,17.6,26,30.02,10.0,SE,8.1,-,N/A,,Clear,140,2014-01-17 22:15:00
3:35 PM,51.8,19.4,28,30.03,10.0,SE,9.2,-,N/A,,Clear,140,2014-01-17 22:35:00
3:55 PM,51.8,19.4,28,30.03,10.0,SSE,6.9,-,N/A,,Clear,160,2014-01-17 22:55:00
4:15 PM,51.8,19.4,28,30.03,10.0,South,4.6,-,N/A,,Clear,170,2014-01-17 23:15:00
4:35 PM,46.4,17.6,32,30.03,10.0,ESE,4.6,-,N/A,,Clear,120,2014-01-17 23:35:00
4:55 PM,44.6,17.6,34,30.03,10.0,Calm,Calm,-,N/A,,Clear,0,2014-01-17 23:55:00
5:15 PM,39.2,17.6,42,30.03,10.0,Calm,Calm,-,N/A,,Clear,0,2014-01-18 00:15:00
6:15 PM,30.2,17.6,60,30.05,10.0,North,3.5,-,N/A,,Clear,10,2014-01-18 01:15:00
6:35 PM,28.4,15.8,59,30.05,10.0,North,3.5,-,N/A,,Clear,360,2014-01-18 01:35:00
6:55 PM,28.4,15.8,59,30.05,10.0,NE,4.6,-,N/A,,Clear,40,2014-01-18 01:55:00
7:15 PM,26.6,15.8,64,30.05,10.0,WNW,3.5,-,N/A,,Clear,300,2014-01-18 02:15:00
7:35 PM,28.4,15.8,59,30.05,10.0,North,4.6,-,N/A,,Clear,350,2014-01-18 02:35:00
7:55 PM,28.4,15.8,59,30.06,10.0,NNE,5.8,-,N/A,,Clear,20,2014-01-18 02:55:00
8:15 PM,28.4,15.8,59,30.05,10.0,Calm,Calm,-,N/A,,Clear,0,2014-01-18 03:15:00
8:35 PM,30.2,15.8,55,30.06,10.0,Calm,Calm,-,N/A,,Clear,0,2014-01-18 03:35:00
8:55 PM,28.4,15.8,59,30.05,10.0,Calm,Calm,-,N/A,,Clear,0,2014-01-18 03:55:00
9:15 PM,28.4,15.8,59,30.06,10.0,Calm,Calm,-,N/A,,Clear,0,2014-01-18 04:15:00
9:35 PM,28.4,15.8,59,30.06,10.0,Calm,Calm,-,N/A,,Clear,0,2014-01-18 04:35:00
9:55 PM,28.4,12.2,51,30.07,10.0,Calm,Calm,-,N/A,,Clear,0,2014-01-18 04:55:00
10:15 PM,32.0,15.8,51,30.06,10.0,North,8.1,-,N/A,,Clear,360,2014-01-18 05:15:00
10:35 PM,26.6,12.2,55,30.06,10.0,NNE,8.1,-,N/A,,Clear,30,2014-01-18 05:35:00
10:55 PM,28.4,15.8,59,30.07,10.0,NNW,5.8,-,N/A,,Clear,340,2014-01-18 05:55:00
11:15 PM,26.6,12.2,55,30.07,10.0,North,9.2,-,N/A,,Clear,360,2014-01-18 06:15:00
11:35 PM,30.2,15.8,55,30.07,10.0,NW,5.8,-,N/A,,Clear,320,2014-01-18 06:35:00
11:55 PM,26.6,12.2,55,30.08,10.0,WSW,9.2,-,N/A,,Clear,240,2014-01-18 06:55:00